CW7283 Weather Reports


time (UTC)temp
F
wind
direction
speed
knots
gust
knots
rain 1hr
in
rain 24hr
in
rain mn
in
humidity
%
barometer
mb
20260831021859 60 315 0.0 0.0 0.00 0.00 0.00 63 1014.2
20260831020334 61 315 0.0 0.0 0.00 0.00 0.00 61 1014.1
20260831014839 62 315 0.0 0.0 0.00 0.00 0.00 60 1013.9
20260831013327 62 333 0.0 1.7 0.00 0.00 0.00 58 1013.9
20260831011841 63 355 0.0 1.7 0.00 0.00 0.00 58 1013.7
20260831010353 64 9 0.0 1.7 0.00 0.00 0.00 56 1013.6
20260831004840 65 325 0.0 1.7 0.00 0.00 0.00 55 1013.6
20260831003354 65 321 0.9 2.6 0.00 0.00 0.00 54 1013.5
20260831001835 66 310 0.0 2.6 0.00 0.00 0.00 52 1013.4
20260831000340 68 9 0.0 2.6 0.00 0.00 0.00 48 1013.2
20260830234828 67 355 0.0 2.6 0.00 0.00 0.00 48 1013.1
20260830233341 68 43 0.0 3.5 0.00 0.00 0.00 48 1013.0
20260830231836 69 300 0.0 5.2 0.00 0.00 0.00 46 1012.9
20260830230351 71 15 0.0 1.7 0.00 0.00 0.00 45 1012.7
20260830224856 71 271 0.0 5.2 0.00 0.00 0.00 46 1012.5
20260830223331 72 9 0.0 8.7 0.00 0.00 0.00 47 1012.4
20260830221909 73 33 0.9 4.3 0.00 0.00 0.00 50 1012.5
20260830220342 72 231 0.0 1.7 0.00 0.00 0.00 49 1012.4
20260830214857 70 256 0.0 2.6 0.00 0.00 0.00 51 1012.4
20260830213346 69 130 0.0 1.7 0.00 0.00 0.00 51 1012.4
20260830211839 68 134 0.0 2.6 0.00 0.00 0.00 53 1012.4
20260830210329 67 182 0.9 2.6 0.00 0.00 0.00 55 1012.8
20260830204843 67 83 0.0 1.7 0.00 0.00 0.00 58 1013.1
20260830203344 64 309 0.0 1.7 0.00 0.00 0.00 62 1013.5
20260830201848 61 311 0.0 3.5 0.00 0.00 0.00 65 1014.2
20260830200331 58 301 0.9 5.2 0.00 0.00 0.00 77 1014.7
20260830194835 56 17 0.0 1.7 0.00 0.00 0.00 76 1014.3
20260830193344 56 28 0.9 8.7 0.00 0.00 0.00 72 1014.7
20260830191901 58 165 2.6 7.0 0.00 0.00 0.00 64 1015.1
20260830190345 58 220 1.7 8.7 0.00 0.00 0.00 62 1014.9
20260830184845 60 350 2.6 11.3 0.00 0.00 0.00 59 1014.3
20260830183351 65 360 1.7 8.7 0.00 0.00 0.00 58 1013.6
20260830181838 66 328 0.9 7.0 0.00 0.00 0.00 58 1012.9
20260830180355 68 5 0.0 9.6 0.00 0.00 0.00 56 1012.5
20260830174829 70 304 0.9 5.2 0.00 0.00 0.00 52 1012.0
20260830173350 71 19 0.0 4.3 0.00 0.00 0.00 50 1011.8
20260830171833 72 355 2.6 3.5 0.00 0.00 0.00 50 1011.9
20260830170359 71 277 0.9 2.6 0.00 0.00 0.00 51 1011.8
20260830164909 71 297 0.0 1.7 0.00 0.00 0.00 51 1011.7
20260830163327 71 252 0.9 1.7 0.00 0.00 0.00 51 1011.8
20260830161838 71 144 0.0 1.7 0.00 0.00 0.00 53 1011.7
20260830160348 69 338 0.0 1.7 0.00 0.00 0.00 55 1011.7
20260830154848 66 130 0.0 1.7 0.00 0.00 0.00 59 1011.8
20260830153411 63 239 0.0 1.7 0.00 0.00 0.00 63 1011.7
20260830151905 60 277 0.0 1.7 0.00 0.00 0.00 72 1011.8
20260830150330 58 235 0.0 0.9 0.00 0.00 0.00 74 1011.8
20260830144828 57 138 0.0 1.7 0.00 0.00 0.00 75 1011.7
20260830143327 57 132 0.0 1.7 0.00 0.00 0.00 76 1011.8
20260830141835 56 130 0.0 1.7 0.00 0.00 0.00 80 1011.9
20260830140344 54 134 0.0 0.0 0.00 0.00 0.00 83 1011.8
20260830134843 53 151 0.0 0.0 0.00 0.00 0.00 83 1012.0
20260830133337 53 206 0.0 0.0 0.00 0.00 0.00 85 1011.8
20260830131841 53 206 0.0 0.0 0.00 0.00 0.00 85 1011.8
20260830130354 53 206 0.0 0.0 0.00 0.00 0.00 83 1011.8
20260830124827 52 206 0.0 0.0 0.00 0.00 0.00 84 1011.3
20260830123330 52 306 0.0 0.0 0.00 0.00 0.00 84 1011.2
20260830121839 52 306 0.0 0.0 0.00 0.00 0.00 83 1011.2
20260830120328 51 184 0.0 0.0 0.00 0.00 0.00 84 1010.6
20260830114843 51 261 0.0 0.0 0.00 0.00 0.00 83 1010.7
20260830113328 51 192 0.0 0.0 0.00 0.00 0.00 83 1011.0
20260830111912 51 192 0.0 0.0 0.00 0.00 0.00 83 1010.8
20260830110337 51 192 0.0 0.0 0.00 0.00 0.00 83 1011.0
20260830104853 51 178 0.0 0.0 0.00 0.00 0.00 82 1010.7
20260830103350 52 194 0.0 0.0 0.00 0.00 0.00 82 1010.7
20260830101839 52 186 0.0 0.0 0.00 0.00 0.00 82 1010.8
20260830100336 52 186 0.0 0.0 0.00 0.00 0.00 82 1010.7
20260830094843 52 186 0.0 0.0 0.00 0.00 0.00 83 1010.7
20260830093349 53 186 0.0 0.0 0.00 0.00 0.00 83 1010.8
20260830091854 53 186 0.0 0.0 0.00 0.00 0.00 82 1010.7
20260830090331 53 193 0.0 0.0 0.00 0.00 0.00 82 1010.8
20260830084826 53 170 0.0 0.0 0.00 0.00 0.00 84 1010.7
20260830083348 53 170 0.0 0.0 0.00 0.00 0.00 85 1010.9
20260830081843 53 194 0.0 0.0 0.00 0.00 0.00 86 1011.2
20260830080408 53 210 0.0 0.0 0.00 0.00 0.00 87 1010.9
20260830074845 53 210 0.0 0.0 0.00 0.00 0.00 86 1010.8
20260830073349 53 309 0.0 0.0 0.00 0.00 0.00 86 1011.1
20260830071829 54 243 0.0 0.0 0.00 0.00 0.00 85 1010.8
20260830070343 54 263 0.0 1.7 0.00 0.00 0.00 85 1010.7
20260830064900 54 165 0.0 0.0 0.00 0.00 0.00 85 1010.8
20260830063359 55 166 0.0 0.0 0.00 0.00 0.00 83 1010.8
20260830061848 55 205 0.0 0.0 0.00 0.00 0.00 82 1011.0
20260830060337 56 205 0.0 0.0 0.00 0.00 0.00 82 1011.2
20260830054859 56 205 0.0 0.0 0.00 0.00 0.00 81 1011.1
20260830053342 57 207 0.0 0.0 0.00 0.00 0.00 79 1011.2
20260830051840 57 231 0.0 0.0 0.00 0.00 0.00 79 1011.1
20260830050348 58 146 0.0 0.0 0.00 0.00 0.00 79 1011.0
20260830044859 58 148 0.0 0.0 0.00 0.00 0.00 78 1011.2
20260830043400 59 219 0.0 0.0 0.00 0.00 0.00 76 1011.2
20260830041834 60 219 0.0 0.0 0.00 0.00 0.00 73 1011.1
20260830040329 61 219 0.0 0.0 0.00 0.00 0.00 71 1011.1
20260830034825 62 221 0.0 0.0 0.00 0.00 0.00 69 1011.2
20260830033337 62 280 0.0 0.0 0.00 0.00 0.00 68 1011.2
20260830031824 63 280 0.0 0.0 0.00 0.00 0.00 68 1010.8
20260830030341 64 292 0.0 0.0 0.00 0.00 0.00 66 1010.7
20260830024845 65 283 0.0 0.0 0.00 0.00 0.00 64 1010.4
20260830023355 66 283 0.0 0.0 0.00 0.00 0.00 63 1010.5